ATLAS 5 CENTAUR DEB, 46846

Orbit data source: Space-Track

ATLAS 5 CENTAUR DEB, 46846 is space debris in HEO originally from a launch on Wed, 17 Oct 2018 UTC launched from the Air Force Eastern Test Range (AFETR). Debris objects in space refer to the collection of defunct objects orbiting the Earth. Examples of debris include non-operational satellites, rocket bodies, and fragments generated from explosions, collisions, or faulty payload assembly.

Loading next visibility...
Identifier
46846, 2018-079DB
Orbit
HEO
Country
Flag of USUS
Related business
Flag of USUnited Launch Alliance/Lockheed Martin (US)
Manufacturer
ULA Decatur
Mission
Spacecraft
Bus & Motor
Unknown
Mass
Unknown
Launch date (UTC)
2018-10-17 (7 years ago)
Launch vehicle
Unknown
Launch site
Air Force Eastern Test Range (AFETR)
Object type
Payload
Rocket body
Debris
Shape & HBR
Unknown shape, 1.1 m
Radar Cross Section
RCS unknown

Expand to show TLE details & history
Last TLE update: 16 hours ago

TLE from 16 hours ago
0 ATLAS 5 CENTAUR DEB
1 46846U 18079DB  25347.89065601 -.00000100  00000-0  00000-0 0  9991
2 46846  12.1210  77.5438 4782494 235.6719  69.4516  1.71840732 32113
Epoch: 2025-12-13T21:22Z
TLE epoch observation values (Epoch: 2025-12-13T21:22:32.679Z)
Latitude
Longitude
34.00802°
Altitude
24,733.4 km
Speed
3.477 km/s
True Right ascension
05h 09m 49s
True Declination
0° 00' 00"
Sunlit
Object was in daylight at epoch
Visualization orbit readout
Latitude
Unknown
Longitude
Unknown
Altitude
Unknown
Speed
Unknown
Apparent Right ascension
Unknown
Apparent Declination
Unknown
Sunlit
N/A
Visualization observer readout
Local Sidereal Time
11:59:16
Azimuth
Unknown
Elevation
Unknown
Doppler factor
Unknown
Orbital elements
Apogee altitude
37,149.273 km
Perigee altitude
8,984.935 km
Semi-major axis
29,445.241 km
Eccentricity
0.47825
Inclination
12.121°
RAAN
77.5438°
Arg. of periapsis
235.6719°
True anomaly
124.27007°
Mean anomaly
69.4516°
Eccentric anomaly
96.66792°
Mean motion
0.42956 °/min
Orbital period
838.07 mins
BSTAR
0
Loading maneuver chart data...
Computing Atmospheric mass density...

Documentation

Showing up to 5 results
|